Find Starlink 32423

NORAD ID: 61218 Int'l Des: 2024-171 Owner: SPXS Country: US Constellation: starlink operational
LEOCIRCULAR

当前视图

正在加载3D地球...

About Starlink 32423

Starlink 32423 (NORAD 61218) is a starlink constellation satellite (v2 mini) launched Sep 20, 2024 by SPXS of US. It operates in LEO, CIRCULAR orbit with a mass of 730.00 kg.

关于 Starlink 32423

正在加载描述...

即将过境

Passes for default location (London). Set your location on the main map for personalized predictions.

高度历史

Loading altitude history...

两行轨道根数

1 61218U 24171U 26170.61443618 .00088699 00000-0 29074-2 0 9996
2 61218 53.1598 209.0160 0000880 74.5515 285.5583 15.30903046 98882
Epoch: Jun 19, 2026 • Age: 15 hours

当前状态

高度 487.8 km
速度 7.62 km/s
星下点 -43.02°S, 73.41°E
发射日期 Sep 20, 2024
运行时间 1.7 years
类型 internet

技术详情

分类 Payload
质量 730.00 kg
干质量 700.00 kg
总质量 730.00 kg
长度 0.30 m
直径 4.10 m
跨度 29.00 m
形状 Box + pan
制造商 SPXS
平台类型 Starlink V2M
阶段状态 In Orbit
所有者/国家 SPXS/US

Most Searched